CYAY

Saint Anthony Airport

St. Anthony, Canada
Issued Wind Visibility Ceiling Temperature Dew Point Humidity Barometer
Sep-26
01:00 UTC
150°
8 KTS
9 miles Overcast
11,000' AGL
C
43° F
C
37° F
81% 29.99" Hg
1015.8 hPa
VFR
Sep-26
00:00 UTC
140°
8 KTS
9 miles Broken
14,000' AGL
C
43° F
C
37° F
81% 30" Hg
1016.2 hPa
VFR
Sep-25
23:00 UTC
140°
5 KTS
9 miles Broken
14,000' AGL
C
43° F
C
36° F
76% 30.01" Hg
1016.7 hPa
VFR
Sep-25
22:00 UTC
200°
4 KTS
9 miles   C
45° F
C
36° F
71% 30.03" Hg
1017.2 hPa
VFR
Sep-25
21:00 UTC
200°
5 KTS
9 miles   C
48° F
C
36° F
62% 30.02" Hg
1016.9 hPa
VFR
Sep-25
20:00 UTC
230°
9 KTS
9 miles   10° C
50° F
C
34° F
54% 30.03" Hg
1017 hPa
VFR
Sep-25
19:00 UTC
260°
6 KTS
9 miles   10° C
50° F
C
34° F
54% 30.03" Hg
1017 hPa
VFR
Sep-25
18:00 UTC
240°
4 KTS
9 miles   C
48° F
-1° C
30° F
50% 30.04" Hg
1017.4 hPa
VFR
Sep-25
17:00 UTC
330°
6 KTS
9 miles   C
48° F
-1° C
30° F
50% 30.04" Hg
1017.6 hPa
VFR
Sep-25
16:00 UTC
330°
6 KTS
9 miles   C
48° F
C
32° F
54% 30.05" Hg
1017.7 hPa
VFR
Sep-25
15:00 UTC
330°
9 KTS
Gust 15 KTS
9 miles   C
48° F
C
34° F
58% 30.04" Hg
1017.6 hPa
VFR
Sep-25
14:00 UTC
280°
11 KTS
Gust 18 KTS
9 miles Broken
3,100' AGL
C
46° F
C
34° F
62% 30.03" Hg
1017.3 hPa
VFR
Sep-25
13:00 UTC
300°
11 KTS
Gust 18 KTS
9 miles   C
46° F
C
34° F
62% 30.03" Hg
1017.2 hPa
VFR
Sep-25
11:00 UTC
           
Sep-25
10:00 UTC
           
Sep-25
09:00 UTC
           
Sep-25
08:00 UTC
           
Sep-25
07:00 UTC
           
Sep-25
06:00 UTC
           
Sep-25
05:00 UTC
           
Sep-25
04:00 UTC
           
Sep-25
03:00 UTC
           
Sep-25
02:00 UTC